Tracking 30106 objects as of 24-Jan-2025
HD Live streaming from Space Station
objects crossing your sky now

SL-3 R/B

Track SL-3 R/B now!
10-day predictions
SL-3 R/B is classified as:


NORAD ID: 13068
Int'l Code: 1982-013B
Perigee: 503.6 km
Apogee: 538.1 km
Inclination: 81.2 °
Period: 94.9 minutes
Semi major axis: 6891 km
RCS: 5.3655 m2 (large)
Launch date: February 19, 1982
Source: Commonwealth of Independent States (former USSR) (CIS)
Launch site: PLESETSK MISSILE AND SPACE COMPLEX (PKMTR)

Note: This is a ROCKET BODY
Your satellite tracking list
Your tracking list is empty




NASA's NSSDC Master Catalog

Two Line Element Set (TLE):
1 13068U 82013B   25023.54083255  .00006762  00000-0  33437-3 0  9990
2 13068  81.1757 279.8912 0025064 116.3838 243.9969 15.17404118342052
Source of the keplerian elements: AFSPC